Back to catalog

BEIDOU 3M17

AliveNavigationMEO
NORAD 43706·PAYLOAD·🇨🇳 China

Launched Nov 18, 2018 from Xichang Satellite Launch Center

Loading…

Next Passes (next 24 hours)

TLE

FreshSource: CelesTrak SupGP

Epoch: Sep 12, 2026, 00:00 UTC

1 43706C 18093A   26255.00000000  .00000000  00000+0  00000+0 0  2554
2 43706  54.1661 179.3534 0008423 303.7037 216.8212  1.86228480    19

Track BEIDOU 3M17 in real time with AllMySat

Download on the App Store